SCP
0 0 0 0 0 0 0 0 0 0 0 0 0 0 0 0 0 0 0 0 0 0 0 0 0 0 0 0 0 0 0 0 0 0 0 0 0 0 0 0 0 0 0 0 0
0 0 0 0 0 0 0 0 0 0 0 0 0 0 0 0 0 0 0 0 0 0 0 0 0 0 0 0 0 0 0 0 0 0 0 0 0 0 0 0 0 0 0 0 0
0 0 0 0 0 0 0 0 0 0 0 0 0 0 0 0 0 0 0 0 0 0 0 0 0 0 0 0 0 0 0 0 0 0 0 0 0 0 0 0 0 0 0 0 0
0 0 0 0 0 0 0 0 0 0 0 0 0 0 0 0 0 0 0 0 0 0 0 0 0 0 0 0 0 0 0 0 0 0 0 0 0 0 0 0 0 0 0 0 0
0 0 0 0 0 0 0 0 0 0 0 0 0 0 0 0 0 0 0 0 0 0 0 0 0 0 0 0 0 0 0 0 0 0 0 0 0 0 0 0 0 0 0 0 0
0 0 0 0 0 0 0 0 0 0 0 0 0 0 0 0 0 0 0 0 0 0 0 0 0 0 0 0 0 0 0 0 0 0 0 0 0 0 0 0 0 0 0 0 0
0 0 0 0 0 0 0 0 0 0 0 0 0 0 0 0 0 0 0 0 0 0 0 0 0 0 0 0 0 0 0 0 0 0 0 0 0 0 0 0 0 0 0 0 0
0 0 -0 0 0 0 0 0 0 0 0 0 0 0 0 0 0 0 0 0 0 0 0 0 0 0 0 0 0 0 0 0 0 0 0 0 0 0 0 0 0 0 0 0 0
0 0 -0 0 0 0 0 0 0 0 1 0 0 0 0 0 0 0 0 0 0 0 0 0 0 0 0 0 0 0 0 0 0 0 0 0 0 0 0 0 0 0 0 0 0
0 0 0 0 0 0 0 1 0 0 1 1 0 0 0 0 0 0 0 0 0 0 0 0 0 0 0 0 0 0 0 0 0 0 0 0 0 0 0 0 0 0 0 0 0
0 0 0 0 0 0 1 1 1 1 1 0 0 0 0 0 0 0 0 0 0 0 0 0 0 0 0 0 0 0 0 0 0 0 0 0 0 0 0 0 0 0 0 0 0
0 0 0 0 0 0 0 0 0 0 0 0 0 0 0 0 0 0 0 0 0 0 0 0 0 0 0 0 0 0 0 0 0 0 0 0 0 0 0 0 0 0 0 0 0
0 0 0 0 0 0 0 0 0 0 0 0 0 0 0 0 0 0 0 0 0 0 0 0 0 0 0 0 0 0 0 0 0 0 0 -0 -0 -0 0 0 0 0 0 0 0
0 0 0 0 0 0 0 0 0 0 0 0 0 0 0 0 0 0 0 0 0 0 0 0 0 0 0 0 0 0 0 0 0 0 0 0 -0 -0 0 0 0 0 0 0 0
0 0 0 0 0 0 0 0 0 0 0 0 0 0 0 0 0 0 0 0 0 0 0 0 0 0 0 0 0 0 0 0 0 0 0 0 0 -0 -0 0 0 0 0 0 0
0 0 0 0 0 0 0 0 0 0 0 0 0 0 0 0 0 0 0 0 0 0 0 0 0 0 0 0 0 0 0 0 0 0 0 0 0 -0 0 -0 0 0 0 0 0
0 0 0 0 0 0 0 0 0 0 0 0 0 0 0 0 0 0 0 0 0 0 0 0 0 0 0 0 0 0 0 0 0 0 0 0 0 0 0 0 -0 0 0 0 0
0 0 0 0 0 0 0 0 0 0 0 0 0 0 0 0 0 0 0 0 0 0 0 0 0 0 0 0 0 0 0 0 0 0 0 0 0 0 -0 -0 0 0 0 0 0
0 0 0 0 0 0 0 0 0 0 0 0 0 0 0 0 0 0 0 0 0 0 0 0 0 0 0 0 0 0 0 0 0 0 0 0 0 0 0 0 0 0 0 0 0
0 0 0 0 0 0 0 0 0 0 0 0 0 0 0 0 0 0 0 0 0 0 0 0 0 0 0 0 0 0 0 0 0 0 0 0 0 0 0 0 0 0 0 0 0
0 0 0 1 0 0 0 0 0 0 0 0 0 0 0 0 0 0 0 0 0 0 0 0 0 0 0 0 0 0 0 0 0 0 0 0 0 0 0 0 0 0 0 0 0
0 0 0 0 0 0 0 0 0 0 0 0 0 0 0 0 0 0 0 0 0 0 0 0 0 0 0 0 0 0 0 0 0 0 0 0 0 0 0 0 0 0 0 0 0
0 0 0 0 0 0 0 0 0 0 0 0 0 0 0 0 0 0 0 0 0 0 0 0 0 0 0 0 0 0 0 0 0 0 0 0 0 0 0 0 0 0 0 -0 -0
0 0 0 0 0 0 0 0 0 0 0 0 0 0 0 0 0 0 0 0 0 0 0 0 0 0 0 0 0 0 0 0 0 0 0 0 -0 -0 -0 -0 -0 0 0 -0 -0
0 0 0 0 0 0 0 0 0 0 0 0 0 0 0 0 0 0 0 0 0 0 0 0 0 0 0 0 0 0 0 0 0 0 0 0 0 -0 -0 -0 -0 -0 0 0 -0
0 0 0 0 0 0 0 0 0 0 0 0 0 0 0 0 0 0 0 0 0 0 0 0 0 0 0 0 0 0 0 0 0 0 0 0 0 -0 -0 -0 -0 0 0 0 0
0 0 0 0 0 0 0 0 0 0 0 0 0 0 0 0 0 0 0 0 0 0 0 0 0 0 0 0 0 0 0 0 0 0 0 0 0 0 -0 -0 -0 -0 0 -0 0
Wind_Speed_500mb
79 74 66 61 66 69 66 56 58 53 50 47 43 40 37 40 44 48 51 44 47 41 20 27 25 14 9 9 13 20 7 5 9 13 6 8 7 6 9 13 18 21 10 10 37
88 82 75 69 63 69 73 65 58 57 52 50 44 40 37 38 44 50 56 46 38 43 38 22 23 17 6 5 7 9 10 15 7 8 8 5 4 6 9 12 16 24 23 17 40
89 92 85 77 68 68 75 72 60 59 55 52 48 42 38 36 20 43 55 52 46 37 37 29 23 17 8 5 4 6 14 14 7 5 3 10 4 2 11 5 26 36 37 30 46
84 98 95 85 76 68 75 79 67 62 56 53 51 47 37 33 14 10 32 51 43 42 39 36 23 17 8 6 2 3 13 23 21 21 5 5 3 4 15 16 11 31 34 40 50
81 91 103 92 80 73 73 78 78 64 63 54 54 47 43 35 20 7 20 53 47 46 44 44 39 22 13 10 1 6 7 10 8 16 27 23 24 20 23 21 28 25 30 47 53
83 70 100 94 86 77 73 78 80 68 67 58 56 50 55 28 22 18 20 49 46 47 45 41 25 32 19 12 14 1 12 19 9 11 15 10 13 10 29 35 23 29 32 45 56
73 90 82 97 91 85 75 78 79 71 67 64 59 56 52 47 24 27 26 47 44 43 42 38 26 34 22 11 11 4 8 11 11 12 10 9 13 16 48 37 39 31 38 44 54
85 72 75 116 100 94 80 79 79 71 68 68 60 61 24 43 23 29 34 46 42 39 37 32 29 27 9 23 10 8 4 6 5 15 14 14 22 20 44 35 44 44 41 49 56
97 91 74 110 116 101 85 83 82 70 67 62 59 59 25 37 40 37 36 46 43 36 33 28 27 12 17 12 6 2 6 10 14 16 5 15 7 32 51 39 40 46 50 54 57
89 94 87 94 108 99 89 87 82 63 58 52 60 29 28 46 55 49 44 46 35 36 28 19 10 7 5 9 15 11 8 8 13 3 10 14 18 30 38 38 63 63 54 53 59
89 84 77 77 104 98 94 89 67 42 74 41 39 14 38 40 53 49 50 41 40 24 9 11 9 28 20 11 6 6 8 11 5 12 8 14 15 29 46 35 42 49 49 62 72
87 81 96 86 115 106 106 107 128 96 64 51 16 32 45 61 30 53 55 28 19 15 17 5 28 12 12 9 2 4 7 6 7 11 5 11 26 20 40 27 49 67 66 72 72
88 85 86 82 104 108 110 131 101 79 23 30 36 38 45 53 38 58 66 27 13 17 21 21 3 22 14 8 12 17 23 13 8 11 7 12 37 20 25 51 56 71 82 75 76
79 86 95 78 118 116 107 114 99 84 13 16 20 17 30 28 8 46 48 21 6 23 21 12 9 20 15 18 17 13 14 14 21 1 14 6 26 16 12 37 25 53 69 89 95
72 84 80 104 120 113 115 109 92 63 25 24 13 32 44 30 30 29 52 18 17 10 12 11 17 15 16 19 18 5 13 14 10 8 5 8 12 13 15 33 39 34 68 82 89
75 74 71 96 99 133 115 112 84 17 18 21 28 22 28 13 9 36 31 14 13 9 8 4 1 7 15 10 18 12 9 7 4 1 18 32 17 42 25 28 40 21 54 69 81
72 68 68 81 99 121 120 102 17 27 10 22 32 40 49 20 21 24 38 24 12 14 17 5 5 4 5 8 4 11 8 3 7 10 18 17 19 55 13 27 21 21 58 65 68
71 78 68 60 118 126 120 36 22 16 32 8 31 49 35 36 13 25 34 30 18 12 14 23 12 20 13 13 12 17 13 8 12 9 9 5 19 33 15 37 53 58 67 76 76
64 68 70 78 132 133 90 32 25 39 20 33 46 48 18 22 19 19 24 34 32 15 14 11 11 2 6 10 18 10 17 17 8 5 8 10 17 27 31 29 43 57 50 56 67
65 65 55 112 141 131 39 25 8 23 29 38 31 37 38 49 23 33 36 21 32 25 6 13 5 4 9 7 10 9 12 9 9 11 12 12 12 27 5 6 11 17 52 74 85
66 30 51 125 138 92 38 10 10 20 53 25 13 16 20 40 31 41 38 3 37 26 18 10 6 4 11 20 18 11 18 6 1 9 7 12 16 33 31 25 32 34 57 58 64
54 8 77 97 33 23 39 18 18 35 19 11 12 9 26 43 24 34 24 12 48 42 40 11 7 8 13 5 3 13 17 32 17 13 6 16 36 14 15 16 17 42 73 65 64
31 10 92 89 20 30 32 9 10 26 10 9 10 6 23 34 16 14 14 10 36 32 25 22 8 4 4 4 6 12 10 9 28 16 32 20 28 9 13 12 42 39 65 80 53
31 11 48 67 29 51 47 16 14 11 9 12 14 33 29 32 6 18 15 5 16 29 22 40 9 11 14 8 4 12 15 15 16 17 41 37 65 84 58 44 33 57 63 83 88
20 8 19 27 26 37 35 19 49 19 6 15 8 41 33 15 8 14 12 14 13 27 11 7 12 8 6 8 9 11 12 15 22 39 25 55 42 75 61 28 40 64 81 93 110
6 13 24 11 65 45 29 22 58 11 11 8 30 31 11 28 12 22 19 9 10 6 8 8 4 5 5 12 16 19 31 29 32 23 25 45 50 79 93 79 83 80 67 76 84
17 43 75 36 36 40 24 32 45 27 15 18 40 25 14 20 36 27 19 27 24 16 8 12 9 7 10 3 9 18 37 25 23 24 23 30 62 72 72 55 65 76 81 87 97
Wind_Direction_500mb
246 247 246 241 233 227 227 231 230 229 227 227 230 229 227 224 223 222 219 224 226 235 247 238 232 232 228 220 152 137 76 219 217 160 224 5 188 176 193 172 178 201 221 222 187
246 244 245 243 233 227 222 225 225 228 225 224 225 228 226 224 224 226 223 218 218 225 234 240 225 222 209 250 204 144 140 217 244 183 147 354 189 186 171 180 210 217 215 216 189
244 243 240 241 235 228 220 221 224 222 224 223 221 222 222 215 213 242 225 218 212 212 215 227 218 196 193 211 266 267 180 182 204 225 214 129 111 262 151 233 224 225 213 207 191
241 238 238 237 235 227 221 217 219 218 220 220 217 216 208 191 202 238 225 216 210 210 204 201 178 161 146 203 225 321 303 176 178 197 233 281 199 247 216 241 271 266 239 214 202
239 237 233 232 231 228 220 216 214 215 215 215 213 208 182 195 229 243 209 193 202 204 204 201 191 171 167 162 225 196 328 307 271 206 234 243 257 246 242 254 283 278 230 225 219
240 243 227 229 229 225 219 215 212 210 209 210 212 201 186 205 225 229 207 193 195 195 196 202 209 196 186 168 176 197 292 275 285 273 260 206 236 185 259 254 260 255 245 229 226
242 241 239 226 225 222 216 214 210 207 206 208 206 199 195 214 225 216 201 192 189 189 187 197 206 184 165 150 170 94 323 326 244 251 261 219 268 198 254 252 248 243 237 234 235
240 241 238 222 222 218 213 209 205 203 200 205 202 193 210 214 211 207 196 185 185 192 198 189 185 176 157 131 87 135 109 278 28 203 224 189 263 225 234 233 245 240 234 237 235
236 235 242 235 223 214 209 203 199 197 198 198 197 193 205 203 204 203 190 183 179 175 172 162 160 142 130 127 86 237 193 206 309 205 243 199 274 248 241 225 241 241 237 236 240
231 235 237 220 212 208 204 197 195 190 193 191 201 194 207 199 190 188 184 187 166 169 149 162 159 130 146 189 207 186 200 196 201 231 211 249 263 278 279 245 235 239 241 239 239
225 226 221 227 209 205 196 189 178 187 189 182 197 209 187 182 184 181 178 167 154 157 149 154 173 205 200 203 61 95 203 223 227 242 248 243 245 259 267 263 263 261 244 245 243
224 220 219 221 209 199 195 182 185 186 174 195 160 193 167 175 168 176 175 162 169 164 112 137 219 182 125 146 169 293 296 252 295 265 246 268 263 239 268 254 247 255 255 251 251
221 218 218 212 216 202 189 193 181 170 158 181 171 161 180 172 174 182 174 170 164 163 178 201 298 163 136 150 205 246 249 252 259 334 279 317 280 243 256 254 243 249 258 257 255
218 213 214 215 195 193 190 188 182 171 152 166 178 175 160 162 162 195 171 144 162 191 171 213 179 159 157 197 166 225 188 213 256 62 262 52 283 246 241 261 232 234 242 248 252
215 210 210 201 184 184 188 183 176 171 192 154 164 159 157 157 142 183 177 176 151 161 151 179 165 154 191 205 170 223 150 177 192 223 297 224 277 287 216 248 261 240 244 252 255
214 212 205 205 184 188 180 180 174 168 198 162 144 163 154 162 149 159 182 173 140 103 44 114 38 177 183 152 170 162 87 58 72 209 246 241 219 273 247 244 265 246 255 257 263
212 210 204 202 186 177 176 168 183 189 159 159 163 162 173 161 157 183 186 177 183 158 192 106 212 180 157 129 84 173 149 230 225 200 244 185 201 249 279 287 259 253 267 264 269
210 210 200 220 176 174 167 167 196 129 179 171 158 163 172 150 175 189 176 192 210 100 159 192 217 183 182 163 171 191 184 185 213 216 261 90 222 254 230 253 263 268 270 269 269
206 211 214 207 174 171 169 183 181 177 156 151 146 158 155 150 136 170 193 200 195 167 148 142 253 357 174 151 159 186 203 218 284 129 277 220 276 293 257 256 263 265 267 262 273
200 201 224 183 171 164 175 169 121 139 121 139 157 179 173 171 151 177 183 211 202 184 145 194 148 193 184 105 274 162 145 177 182 233 244 244 255 251 330 315 281 267 270 267 275
190 199 194 166 164 165 180 154 115 142 127 152 154 153 182 174 171 180 190 220 199 184 140 156 112 184 140 211 181 180 227 192 134 192 219 274 263 256 265 238 247 271 279 277 292
183 185 173 168 160 171 169 129 112 144 113 108 100 91 169 169 165 181 193 204 194 163 196 159 133 162 204 5 204 208 212 212 219 245 252 271 272 232 221 239 237 270 288 286 303
169 147 172 177 165 162 152 76 114 151 127 137 117 130 146 163 167 159 150 194 175 171 173 166 210 83 351 310 285 221 215 227 235 268 261 234 255 75 269 307 313 297 293 288 299
165 163 167 181 169 150 146 153 126 139 84 95 108 127 130 159 24 176 139 162 164 163 158 159 181 192 188 163 142 187 205 218 219 231 247 246 264 279 269 275 277 281 283 295 301
204 159 155 162 163 149 147 146 150 154 86 137 89 155 151 142 119 140 135 116 70 149 95 122 186 164 150 164 161 195 202 206 221 250 251 262 268 275 281 286 277 279 285 292 291
231 147 132 116 155 151 140 160 161 114 136 167 149 153 125 158 166 160 135 145 169 133 125 150 171 116 263 230 232 242 244 227 231 242 258 271 276 262 286 285 280 279 286 285 288
238 142 140 146 157 157 173 156 159 132 27 129 136 118 114 153 147 140 119 148 144 135 118 148 136 138 263 295 87 291 233 221 226 221 227 251 261 274 273 272 283 286 279 277 280
Wind_Speed_850mb
79 74 66 61 66 69 66 56 58 53 50 47 43 40 37 40 44 48 51 44 47 41 20 27 25 14 9 9 13 20 7 5 9 13 6 8 7 6 9 13 18 21 10 10 37
88 82 75 69 63 69 73 65 58 57 52 50 44 40 37 38 44 50 56 46 38 43 38 22 23 17 6 5 7 9 10 15 7 8 8 5 4 6 9 12 16 24 23 17 40
89 92 85 77 68 68 75 72 60 59 55 52 48 42 38 36 20 43 55 52 46 37 37 29 23 17 8 5 4 6 14 14 7 5 3 10 4 2 11 5 26 36 37 30 46
84 98 95 85 76 68 75 79 67 62 56 53 51 47 37 33 14 10 32 51 43 42 39 36 23 17 8 6 2 3 13 23 21 21 5 5 3 4 15 16 11 31 34 40 50
81 91 103 92 80 73 73 78 78 64 63 54 54 47 43 35 20 7 20 53 47 46 44 44 39 22 13 10 1 6 7 10 8 16 27 23 24 20 23 21 28 25 30 47 53
83 70 100 94 86 77 73 78 80 68 67 58 56 50 55 28 22 18 20 49 46 47 45 41 25 32 19 12 14 1 12 19 9 11 15 10 13 10 29 35 23 29 32 45 56
73 90 82 97 91 85 75 78 79 71 67 64 59 56 52 47 24 27 26 47 44 43 42 38 26 34 22 11 11 4 8 11 11 12 10 9 13 16 48 37 39 31 38 44 54
85 72 75 116 100 94 80 79 79 71 68 68 60 61 24 43 23 29 34 46 42 39 37 32 29 27 9 23 10 8 4 6 5 15 14 14 22 20 44 35 44 44 41 49 56
97 91 74 110 116 101 85 83 82 70 67 62 59 59 25 37 40 37 36 46 43 36 33 28 27 12 17 12 6 2 6 10 14 16 5 15 7 32 51 39 40 46 50 54 57
89 94 87 94 108 99 89 87 82 63 58 52 60 29 28 46 55 49 44 46 35 36 28 19 10 7 5 9 15 11 8 8 13 3 10 14 18 30 38 38 63 63 54 53 59
89 84 77 77 104 98 94 89 67 42 74 41 39 14 38 40 53 49 50 41 40 24 9 11 9 28 20 11 6 6 8 11 5 12 8 14 15 29 46 35 42 49 49 62 72
87 81 96 86 115 106 106 107 128 96 64 51 16 32 45 61 30 53 55 28 19 15 17 5 28 12 12 9 2 4 7 6 7 11 5 11 26 20 40 27 49 67 66 72 72
88 85 86 82 104 108 110 131 101 79 23 30 36 38 45 53 38 58 66 27 13 17 21 21 3 22 14 8 12 17 23 13 8 11 7 12 37 20 25 51 56 71 82 75 76
79 86 95 78 118 116 107 114 99 84 13 16 20 17 30 28 8 46 48 21 6 23 21 12 9 20 15 18 17 13 14 14 21 1 14 6 26 16 12 37 25 53 69 89 95
72 84 80 104 120 113 115 109 92 63 25 24 13 32 44 30 30 29 52 18 17 10 12 11 17 15 16 19 18 5 13 14 10 8 5 8 12 13 15 33 39 34 68 82 89
75 74 71 96 99 133 115 112 84 17 18 21 28 22 28 13 9 36 31 14 13 9 8 4 1 7 15 10 18 12 9 7 4 1 18 32 17 42 25 28 40 21 54 69 81
72 68 68 81 99 121 120 102 17 27 10 22 32 40 49 20 21 24 38 24 12 14 17 5 5 4 5 8 4 11 8 3 7 10 18 17 19 55 13 27 21 21 58 65 68
71 78 68 60 118 126 120 36 22 16 32 8 31 49 35 36 13 25 34 30 18 12 14 23 12 20 13 13 12 17 13 8 12 9 9 5 19 33 15 37 53 58 67 76 76
64 68 70 78 132 133 90 32 25 39 20 33 46 48 18 22 19 19 24 34 32 15 14 11 11 2 6 10 18 10 17 17 8 5 8 10 17 27 31 29 43 57 50 56 67
65 65 55 112 141 131 39 25 8 23 29 38 31 37 38 49 23 33 36 21 32 25 6 13 5 4 9 7 10 9 12 9 9 11 12 12 12 27 5 6 11 17 52 74 85
66 30 51 125 138 92 38 10 10 20 53 25 13 16 20 40 31 41 38 3 37 26 18 10 6 4 11 20 18 11 18 6 1 9 7 12 16 33 31 25 32 34 57 58 64
54 8 77 97 33 23 39 18 18 35 19 11 12 9 26 43 24 34 24 12 48 42 40 11 7 8 13 5 3 13 17 32 17 13 6 16 36 14 15 16 17 42 73 65 64
31 10 92 89 20 30 32 9 10 26 10 9 10 6 23 34 16 14 14 10 36 32 25 22 8 4 4 4 6 12 10 9 28 16 32 20 28 9 13 12 42 39 65 80 53
31 11 48 67 29 51 47 16 14 11 9 12 14 33 29 32 6 18 15 5 16 29 22 40 9 11 14 8 4 12 15 15 16 17 41 37 65 84 58 44 33 57 63 83 88
20 8 19 27 26 37 35 19 49 19 6 15 8 41 33 15 8 14 12 14 13 27 11 7 12 8 6 8 9 11 12 15 22 39 25 55 42 75 61 28 40 64 81 93 110
6 13 24 11 65 45 29 22 58 11 11 8 30 31 11 28 12 22 19 9 10 6 8 8 4 5 5 12 16 19 31 29 32 23 25 45 50 79 93 79 83 80 67 76 84
17 43 75 36 36 40 24 32 45 27 15 18 40 25 14 20 36 27 19 27 24 16 8 12 9 7 10 3 9 18 37 25 23 24 23 30 62 72 72 55 65 76 81 87 97
Wind_Direction_850mb
246 247 246 241 233 227 227 231 230 229 227 227 230 229 227 224 223 222 219 224 226 235 247 238 232 232 228 220 152 137 76 219 217 160 224 5 188 176 193 172 178 201 221 222 187
246 244 245 243 233 227 222 225 225 228 225 224 225 228 226 224 224 226 223 218 218 225 234 240 225 222 209 250 204 144 140 217 244 183 147 354 189 186 171 180 210 217 215 216 189
244 243 240 241 235 228 220 221 224 222 224 223 221 222 222 215 213 242 225 218 212 212 215 227 218 196 193 211 266 267 180 182 204 225 214 129 111 262 151 233 224 225 213 207 191
241 238 238 237 235 227 221 217 219 218 220 220 217 216 208 191 202 238 225 216 210 210 204 201 178 161 146 203 225 321 303 176 178 197 233 281 199 247 216 241 271 266 239 214 202
239 237 233 232 231 228 220 216 214 215 215 215 213 208 182 195 229 243 209 193 202 204 204 201 191 171 167 162 225 196 328 307 271 206 234 243 257 246 242 254 283 278 230 225 219
240 243 227 229 229 225 219 215 212 210 209 210 212 201 186 205 225 229 207 193 195 195 196 202 209 196 186 168 176 197 292 275 285 273 260 206 236 185 259 254 260 255 245 229 226
242 241 239 226 225 222 216 214 210 207 206 208 206 199 195 214 225 216 201 192 189 189 187 197 206 184 165 150 170 94 323 326 244 251 261 219 268 198 254 252 248 243 237 234 235
240 241 238 222 222 218 213 209 205 203 200 205 202 193 210 214 211 207 196 185 185 192 198 189 185 176 157 131 87 135 109 278 28 203 224 189 263 225 234 233 245 240 234 237 235
236 235 242 235 223 214 209 203 199 197 198 198 197 193 205 203 204 203 190 183 179 175 172 162 160 142 130 127 86 237 193 206 309 205 243 199 274 248 241 225 241 241 237 236 240
231 235 237 220 212 208 204 197 195 190 193 191 201 194 207 199 190 188 184 187 166 169 149 162 159 130 146 189 207 186 200 196 201 231 211 249 263 278 279 245 235 239 241 239 239
225 226 221 227 209 205 196 189 178 187 189 182 197 209 187 182 184 181 178 167 154 157 149 154 173 205 200 203 61 95 203 223 227 242 248 243 245 259 267 263 263 261 244 245 243
224 220 219 221 209 199 195 182 185 186 174 195 160 193 167 175 168 176 175 162 169 164 112 137 219 182 125 146 169 293 296 252 295 265 246 268 263 239 268 254 247 255 255 251 251
221 218 218 212 216 202 189 193 181 170 158 181 171 161 180 172 174 182 174 170 164 163 178 201 298 163 136 150 205 246 249 252 259 334 279 317 280 243 256 254 243 249 258 257 255
218 213 214 215 195 193 190 188 182 171 152 166 178 175 160 162 162 195 171 144 162 191 171 213 179 159 157 197 166 225 188 213 256 62 262 52 283 246 241 261 232 234 242 248 252
215 210 210 201 184 184 188 183 176 171 192 154 164 159 157 157 142 183 177 176 151 161 151 179 165 154 191 205 170 223 150 177 192 223 297 224 277 287 216 248 261 240 244 252 255
214 212 205 205 184 188 180 180 174 168 198 162 144 163 154 162 149 159 182 173 140 103 44 114 38 177 183 152 170 162 87 58 72 209 246 241 219 273 247 244 265 246 255 257 263
212 210 204 202 186 177 176 168 183 189 159 159 163 162 173 161 157 183 186 177 183 158 192 106 212 180 157 129 84 173 149 230 225 200 244 185 201 249 279 287 259 253 267 264 269
210 210 200 220 176 174 167 167 196 129 179 171 158 163 172 150 175 189 176 192 210 100 159 192 217 183 182 163 171 191 184 185 213 216 261 90 222 254 230 253 263 268 270 269 269
206 211 214 207 174 171 169 183 181 177 156 151 146 158 155 150 136 170 193 200 195 167 148 142 253 357 174 151 159 186 203 218 284 129 277 220 276 293 257 256 263 265 267 262 273
200 201 224 183 171 164 175 169 121 139 121 139 157 179 173 171 151 177 183 211 202 184 145 194 148 193 184 105 274 162 145 177 182 233 244 244 255 251 330 315 281 267 270 267 275
190 199 194 166 164 165 180 154 115 142 127 152 154 153 182 174 171 180 190 220 199 184 140 156 112 184 140 211 181 180 227 192 134 192 219 274 263 256 265 238 247 271 279 277 292
183 185 173 168 160 171 169 129 112 144 113 108 100 91 169 169 165 181 193 204 194 163 196 159 133 162 204 5 204 208 212 212 219 245 252 271 272 232 221 239 237 270 288 286 303
169 147 172 177 165 162 152 76 114 151 127 137 117 130 146 163 167 159 150 194 175 171 173 166 210 83 351 310 285 221 215 227 235 268 261 234 255 75 269 307 313 297 293 288 299
165 163 167 181 169 150 146 153 126 139 84 95 108 127 130 159 24 176 139 162 164 163 158 159 181 192 188 163 142 187 205 218 219 231 247 246 264 279 269 275 277 281 283 295 301
204 159 155 162 163 149 147 146 150 154 86 137 89 155 151 142 119 140 135 116 70 149 95 122 186 164 150 164 161 195 202 206 221 250 251 262 268 275 281 286 277 279 285 292 291
231 147 132 116 155 151 140 160 161 114 136 167 149 153 125 158 166 160 135 145 169 133 125 150 171 116 263 230 232 242 244 227 231 242 258 271 276 262 286 285 280 279 286 285 288
238 142 140 146 157 157 173 156 159 132 27 129 136 118 114 153 147 140 119 148 144 135 118 148 136 138 263 295 87 291 233 221 226 221 227 251 261 274 273 272 283 286 279 277 280